Miscellaneous Local Product
Issued by NWS Hastings, NE

Home | Current Version | Previous Version | Graphics & Text | Print | Product List | Glossary On
Versions: 1 2 3 4 5 6 7 8 9 10 11 12 13 14 15 16 17 18 19 20 21 22 23 24 25 26 27 28 29 30 31 32 33 34 35 36 37 38 39 40 41 42 43 44 45 46 47 48 49 50
000
AXUS43 KGID 221510
MISGRI

GID CWA HOURLY WEATHER ROUNDUP
NATIONAL WEATHER SERVICE HASTINGS NE
1000 AM CDT MON SEP 22 2014

NOTE: "FAIR" INDICATES FEW OR NO CLOUDS BELOW 12,000 FEET WITH NO
SIGNIFICANT WEATHER AND/OR OBSTRUCTIONS TO VISIBILITY.

...SOUTH CENTRAL NEBRASKA...

CITY           SKY/WX    TMP DP  RH WIND       PRES   REMARKS
GRAND ISLAND   SUNNY     64  50  60 S9        30.31S
HASTINGS       SUNNY     61  48  62 S8        30.31S
KEARNEY        SUNNY     61  48  63 S13       30.31S
ORD            MOSUNNY   59  50  72 S8        30.27F
YORK           SUNNY     59  54  82 S6        30.32R
AURORA         SUNNY     60  49  67 S8        30.31S
LEXINGTON      CLOUDY    60  49  65 S10       30.30S
HOLDREGE       MOSUNNY   60  48  64 S9        30.30S
HEBRON         SUNNY     62  49  62 S6        30.33R

...NEBRASKA PANHANDLE...

CITY           SKY/WX    TMP DP  RH WIND       PRES   REMARKS
CHADRON        MOSUNNY   64  44  48 S20G26    30.10F
ALLIANCE       PTSUNNY   62  43  49 S17       30.15S
SCOTTSBLUFF    PTSUNNY   62  45  53 SE12      30.15S
SIDNEY         CLOUDY    61  43  51 S16       30.20S

...WESTERN AND NORTH CENTRAL NEBRASKA...

CITY           SKY/WX    TMP DP  RH WIND       PRES   REMARKS
VALENTINE      PTSUNNY   64  44  48 S23       30.20F
AINSWORTH      MOSUNNY   61  45  56 S16G25    30.23S
ONEILL         MOSUNNY   62  51  67 S10       30.27S
BROKEN BOW     MOSUNNY   61  47  59 S13G20    30.28S
IMPERIAL       PTSUNNY   64  41  42 S15       30.24S
NORTH PLATTE   CLOUDY    60  44  55 SE9       30.27R
MCCOOK         SUNNY     65  45  48 S9        30.28S

...EASTERN NEBRASKA...

CITY           SKY/WX    TMP DP  RH WIND       PRES   REMARKS
NORFOLK        SUNNY     62  50  64 S9        30.29F
SO SIOUX CITY  SUNNY     58  52  80 S3        30.30S
TEKAMAH        SUNNY     56  53  90 VRB5      30.31S
COLUMBUS       SUNNY     57  48  72 CALM      30.32S
ALBION         SUNNY     60  50  68 S6        30.30S
OMAHA EPPLEY   MOSUNNY   60  50  69 S7        30.32S
OFFUTT AFB     SUNNY     57  57 100 E5        30.32R
MILLARD        SUNNY     62  54  75 SE6       30.31S
LINCOLN        SUNNY     58  51  78 S5        30.33S
NEBRASKA CITY    N/A     60  46  58 SE6       30.32S
BEATRICE       SUNNY     60  50  70 S6        30.32S
FALLS CITY     SUNNY     61  53  75 E6        30.32S

...NORTHERN KANSAS...

CITY           SKY/WX    TMP DP  RH WIND       PRES   REMARKS
GOODLAND       PTSUNNY   62  43  49 S18G26    30.27F
HILL CITY      SUNNY     65  46  50 S14G20    30.31F
NORTON         SUNNY     63  43  48 SE14      30.30
PHILLIPSBURG   MOSUNNY   63  46  55 SE12      30.32S
SMITH CENTER   SUNNY     64  46  52 SE15      30.33R
BELOIT         SUNNY     63  52  67 S6        30.32S
HAYS           SUNNY     63  46  55 S14       30.32F
RUSSELL        MOSUNNY   61  48  62 SE12      30.31F
CONCORDIA      SUNNY     64  52  64 S8        30.33R
SALINA         SUNNY     61  51  70 CALM      30.33F
TOPEKA         SUNNY     62  55  77 E7        30.33S



USA.gov is the U.S. government's official web portal to all federal, state and local government web resources and services.